EW0590 Weather Reports


time (UTC)temp
F
wind
direction
speed
knots
gust
knots
rain 1hr
in
rain 24hr
in
rain mn
in
humidity
%
barometer
mb
20260906145600 82 150 2.6 4.3 0.00 0.00 0.00 74 1014.9
20260906144600 82 228 0.9 3.5 0.00 0.00 0.00 75 1014.9
20260906143600 81 8 0.0 2.6 0.00 0.00 0.00 77 1014.9
20260906142600 80 75 0.0 3.5 0.00 0.00 0.00 77 1014.9
20260906141600 80 220 0.0 2.6 0.00 0.00 0.00 77 1014.8
20260906140600 79 155 0.0 1.7 0.00 0.00 0.00 78 1014.6
20260906135600 78 105 0.0 7.0 0.00 0.00 0.00 78 1014.7
20260906134600 78 329 0.0 0.9 0.00 0.00 0.00 77 1014.7
20260906133600 77 245 0.0 0.9 0.00 0.00 0.00 74 1014.7
20260906132600 77 225 0.9 2.6 0.00 0.00 0.00 72 1014.9
20260906131600 76 246 0.0 0.9 0.00 0.00 0.00 72 1014.9
20260906130600 76 233 0.0 0.9 0.00 0.00 0.00 70 1014.8
20260906125600 75 159 0.0 1.7 0.00 0.00 0.00 68 1014.8
20260906124600 75 281 0.0 0.9 0.00 0.00 0.00 62 1014.8
20260906123600 74 160 0.0 1.7 0.00 0.00 0.00 53 1014.6
20260906122600 73 243 0.0 1.7 0.00 0.00 0.00 42 1014.5
20260906121600 73 150 0.0 0.0 0.00 0.00 0.00 37 1014.3
20260906120600 72 149 0.0 0.9 0.00 0.00 0.00 34 1014.1
20260906115600 72 149 0.0 0.9 0.00 0.00 0.00 31 1014.1
20260906114600 72 150 0.0 0.0 0.00 0.00 0.00 31 1014.1
20260906113600 72 149 0.0 0.0 0.00 0.00 0.00 35 1014.0
20260906112600 72 149 0.0 0.0 0.00 0.00 0.00 37 1013.9
20260906111600 73 150 0.0 0.0 0.00 0.00 0.00 38 1013.9
20260906110600 73 77 0.0 0.9 0.00 0.00 0.00 44 1013.8
20260906105600 74 32 0.0 0.0 0.00 0.00 0.00 47 1013.7
20260906104600 74 31 0.0 0.0 0.00 0.00 0.00 49 1013.6
20260906103600 74 32 0.0 0.0 0.00 0.00 0.00 52 1013.6
20260906102600 75 32 0.0 0.9 0.00 0.00 0.00 56 1013.5
20260906101600 75 40 0.0 0.0 0.00 0.00 0.00 60 1013.3
20260906100600 76 40 0.0 0.9 0.00 0.00 0.00 63 1013.3
20260906095600 76 45 0.0 0.0 0.00 0.00 0.00 63 1013.3
20260906094600 77 49 0.0 0.9 0.00 0.00 0.00 65 1013.3
20260906093600 77 350 0.0 0.9 0.00 0.00 0.00 67 1013.2
20260906092600 78 350 0.0 0.0 0.00 0.00 0.00 70 1013.1
20260906091600 78 349 0.0 0.9 0.00 0.00 0.00 72 1012.9
20260906090600 79 316 0.0 0.9 0.00 0.00 0.00 73 1013.0
20260906085600 79 250 0.0 2.6 0.00 0.00 0.00 72 1012.9
20260906084559 79 281 0.0 2.6 0.00 0.00 0.00 68 1012.8
20260906083559 78 181 0.0 0.9 0.00 0.00 0.00 62 1012.7
20260906082600 78 174 0.9 0.9 0.00 0.00 0.00 53 1012.7
20260906081600 77 226 0.0 0.0 0.00 0.00 0.00 48 1012.6
20260906080600 77 226 0.0 0.0 0.00 0.00 0.00 47 1012.8
20260906075559 77 226 0.0 0.0 0.00 0.00 0.00 47 1012.5
20260906074559 77 226 0.0 1.7 0.00 0.00 0.00 44 1012.6
20260906073600 76 236 0.0 0.0 0.00 0.00 0.00 41 1012.5
20260906072600 77 235 0.0 0.0 0.00 0.00 0.00 43 1012.4
20260906071600 77 235 0.0 0.0 0.00 0.00 0.00 45 1012.4
20260906070600 77 235 0.0 0.0 0.00 0.00 0.00 46 1012.5
20260906065559 77 235 0.0 0.0 0.00 0.00 0.00 48 1012.4
20260906064559 77 236 0.0 0.0 0.00 0.00 0.00 48 1012.6
20260906063559 77 235 0.0 0.0 0.00 0.00 0.00 49 1012.7
20260906062600 77 235 0.0 0.0 0.00 0.00 0.00 52 1012.8
20260906061559 77 235 0.0 0.0 0.00 0.00 0.00 53 1012.7
20260906060559 77 235 0.0 0.0 0.00 0.00 0.00 55 1012.8
20260906055559 77 236 0.0 0.0 0.00 0.00 0.00 56 1012.7
20260906054559 77 236 0.0 0.0 0.00 0.00 0.00 56 1012.7
20260906053559 77 235 0.0 0.0 0.00 0.00 0.00 59 1012.6
20260906052559 77 235 0.0 0.0 0.00 0.00 0.00 62 1012.7
20260906051559 78 235 0.0 0.0 0.00 0.00 0.00 64 1012.7
20260906050559 78 235 0.0 0.0 0.00 0.00 0.00 64 1012.7
20260906045559 78 235 0.0 0.0 0.00 0.00 0.00 68 1012.5
20260906044559 78 235 0.0 0.0 0.00 0.00 0.00 71 1012.4
20260906043559 78 235 0.0 0.0 0.00 0.00 0.00 72 1012.4
20260906042559 79 236 0.0 0.0 0.00 0.00 0.00 73 1012.3
20260906041559 79 235 0.0 0.0 0.00 0.00 0.00 74 1012.3
20260906040559 79 235 0.0 0.0 0.00 0.00 0.00 75 1012.2
20260906035559 79 235 0.0 0.0 0.00 0.00 0.00 75 1012.0
20260906034559 79 235 0.0 0.0 0.00 0.00 0.00 75 1012.0
20260906033559 79 235 0.0 0.0 0.00 0.00 0.00 75 1012.0
20260906032559 79 235 0.0 0.0 0.00 0.00 0.00 75 1011.9
20260906031559 79 236 0.0 0.0 0.00 0.00 0.00 76 1011.8
20260906030559 79 236 0.0 0.0 0.00 0.00 0.00 76 1011.7
20260906025559 80 235 0.0 0.0 0.00 0.00 0.00 77 1011.6
20260906024559 80 235 0.0 0.0 0.00 0.00 0.00 77 1011.5
20260906023559 80 235 0.0 0.0 0.00 0.00 0.00 77 1011.5
20260906022559 80 235 0.0 0.0 0.00 0.00 0.00 78 1011.1
20260906021559 80 235 0.0 0.0 0.00 0.00 0.00 78 1011.1
20260906020559 81 235 0.0 0.0 0.00 0.00 0.00 78 1011.0
20260906015559 81 235 0.0 0.0 0.00 0.00 0.00 77 1010.9
20260906014559 82 235 0.0 0.0 0.00 0.00 0.00 76 1010.7
20260906013559 82 235 0.0 0.0 0.00 0.00 0.00 76 1010.7
20260906012559 83 235 0.0 0.0 0.00 0.00 0.00 75 1010.5
20260906011559 84 236 0.0 0.0 0.00 0.00 0.00 74 1010.4
20260906010559 84 235 0.0 0.0 0.00 0.00 0.00 72 1010.2
20260906005559 86 235 0.0 0.0 0.00 0.00 0.00 71 1010.2
20260906004559 87 235 0.0 0.0 0.00 0.00 0.00 69 1010.1
20260906003559 88 235 0.0 0.0 0.00 0.00 0.00 66 1010.0
20260906002559 90 235 0.0 0.0 0.00 0.00 0.00 64 1010.0
20260906001559 91 235 0.0 0.0 0.00 0.00 0.00 64 1010.0
20260906000559 93 236 0.0 0.0 0.00 0.00 0.00 59 1010.1
20260905235559 95 236 0.0 0.9 0.00 0.00 0.00 51 1010.0
20260905234559 96 236 0.0 0.9 0.00 0.00 0.00 51 1010.0
20260905233559 96 260 0.0 0.9 0.00 0.00 0.00 50 1010.1
20260905232559 96 257 0.0 0.9 0.00 0.00 0.00 49 1010.2
20260905231559 96 283 0.0 1.7 0.00 0.00 0.00 50 1010.1
20260905230559 97 329 0.0 1.7 0.00 0.00 0.00 49 1010.4
20260905225559 98 257 0.0 0.9 0.00 0.00 0.00 47 1010.3
20260905224559 99 277 0.0 1.7 0.00 0.00 0.00 45 1010.2
20260905223559 99 278 0.0 3.5 0.00 0.00 0.00 46 1010.0
20260905222559 99 229 0.9 1.7 0.00 0.00 0.00 46 1010.1
20260905221559 98 61 0.0 1.7 0.00 0.00 0.00 47 1010.2
20260905220559 98 297 0.0 0.9 0.00 0.00 0.00 49 1010.1
20260905215559 99 250 0.0 0.9 0.00 0.00 0.00 47 1010.2
20260905214559 99 20 0.0 0.9 0.00 0.00 0.00 49 1010.3
20260905213559 98 319 0.0 2.6 0.00 0.00 0.00 46 1010.2
20260905212559 98 347 0.0 1.7 0.00 0.00 0.00 46 1010.2
20260905211559 99 262 0.9 1.7 0.00 0.00 0.00 45 1010.2
20260905210559 97 107 0.0 0.9 0.00 0.00 0.00 48 1010.3
20260905205558 94 139 0.0 2.6 0.00 0.00 0.00 50 1010.6
20260905204559 94 148 0.0 2.6 0.00 0.00 0.00 48 1010.6
20260905203559 95 131 2.6 7.0 0.00 0.00 0.00 46 1010.6
20260905202559 96 283 0.0 4.3 0.00 0.00 0.00 50 1010.8
20260905201559 97 299 5.2 7.0 0.00 0.00 0.00 47 1011.0
20260905200559 99 323 0.0 2.6 0.00 0.00 0.00 43 1010.7
20260905195558 101 335 1.7 4.3 0.00 0.00 0.00 41 1010.8
20260905194558 102 8 0.0 2.6 0.00 0.00 0.00 43 1010.8
20260905193558 100 32 0.0 3.5 0.00 0.00 0.00 43 1010.9
20260905192558 99 167 0.0 3.5 0.00 0.00 0.00 44 1011.1
20260905191559 100 333 0.9 3.5 0.00 0.00 0.00 43 1011.3
20260905190558 101 307 1.7 5.2 0.00 0.00 0.00 43 1011.3
20260905185559 101 313 1.7 3.5 0.00 0.00 0.00 43 1011.4
20260905184559 100 69 1.7 5.2 0.00 0.00 0.00 44 1011.4
20260905183558 101 282 0.0 4.3 0.00 0.00 0.00 44 1011.6
20260905182559 101 243 0.0 4.3 0.00 0.00 0.00 44 1011.7
20260905181558 101 64 0.9 3.5 0.00 0.00 0.00 45 1011.7
20260905180558 100 59 0.0 3.5 0.00 0.00 0.00 48 1011.8
20260905175558 100 59 0.9 2.6 0.00 0.00 0.00 47 1011.9
20260905174558 99 243 0.9 3.5 0.00 0.00 0.00 50 1012.1
20260905173558 99 229 0.0 2.6 0.00 0.00 0.00 49 1012.1
20260905172558 98 34 0.9 3.5 0.00 0.00 0.00 51 1012.3
20260905171558 98 353 0.0 2.6 0.00 0.00 0.00 49 1012.4
20260905170558 98 29 2.6 2.6 0.00 0.00 0.00 49 1012.5
20260905165558 98 318 2.6 3.5 0.00 0.00 0.00 50 1012.6
20260905164558 97 27 0.0 4.3 0.00 0.00 0.00 49 1012.7
20260905163558 97 257 0.0 1.7 0.00 0.00 0.00 55 1012.9
20260905162558 96 34 0.0 1.7 0.00 0.00 0.00 53 1013.0
20260905161558 96 71 0.0 2.6 0.00 0.00 0.00 55 1012.9
20260905160558 95 149 0.9 2.6 0.00 0.00 0.00 56 1013.0
20260905155558 94 197 0.0 4.3 0.00 0.00 0.00 57 1013.1
20260905154559 94 212 0.0 2.6 0.00 0.00 0.00 57 1013.0
20260905153558 93 129 0.9 2.6 0.00 0.00 0.00 60 1013.0
20260905152558 93 38 0.9 3.5 0.00 0.00 0.00 60 1013.1
20260905151558 92 241 0.0 1.7 0.00 0.00 0.00 62 1013.2
20260905150558 90 246 0.0 3.5 0.00 0.00 0.00 64 1013.1